Погода в Дружбе

Россия / Карачаево-Черкесская Республика     44°11′36″N   42°00′53″E
темп.,
°C
ветер,
м/с
пор.,
м/с
влажн.,
%
обл.,
%
осадки,
мм/ч
давл.,
гПа
погр.,
м
28 ноября, вс
вс2800:00+6ююв346696 0.0 101644
03:00+6ю2270100 0.0 101514
06:00+8ююв446573 0.0 101444
09:00+8ююз336699 0.0 101537
12:00+14зсз124996 0.0 1013346
15:00+13всв225491 0.0 101285
18:00+9юв226514 0.0 101318
21:00+9ююв2266100 0.0 101315
29 ноября, пн
пн2900:00+9ю2269100 0.1 101323
03:00+8юз117422 0.1 101411
06:00+8юв2271100 0.0 101416
09:00+10ююв346297 0.0 101459
12:00+17юв24415 0.0 1012361
15:00+17вюв23448 0.0 101173
18:00+12ю225799 0.0 101019
21:00+14ю3447100 0.0 100853
30 ноября, вт
вт3000:00+12ю445399 0.0 100636
03:00+12ююз3357100 0.0 100528
06:00+9ссз4981100 0.0 1007270
09:00+10зсз4988100 0.1 1008559
12:00+11з1387100 2.8 1007230
15:00+12в238495 3.0 1005180
18:00+9в4108972 0.1 1003398
21:00+8ююв239639 0.3 999112
1 декабря, ср
ср100:00+7зюз228995 0.3 99718
03:00+7ссз2592100 8.3 1000330
06:00+8юз7157498 0.6 1000541
09:00+2зсз91794100 0.8 1009866
12:00+2зсз61075100 0.4 10121017
15:00+3зсз6970100 0.6 1011979
18:00+2зсз487691 0.0 1013712
21:00+2юз247710 0.1 1014204
2 декабря, чт
чт200:00+1ю36790 0.0 101494
03:00−1зсз11905 0.0 101615
06:000ю2281100 0.0 101725
09:00+2ююв22562 0.0 101990
12:00+6всв11395 0.0 1018586
15:00+7св11400 0.0 1019646
18:00+3вюв22650 0.0 102017
21:00+2ююв22650 0.0 102116